When you browse on this site, cookies collect data to enhance your experience and personalize the content and advertising you see.
Visit our Privacy Policy to learn more. By continuing to use the site, you agree to this use of cookies and data.
  • In Austria
  • List of Countries
  • For 7 days
  • Water Temperature
  • Weather Map
  • News
  • Weather Widgets
  • user-avatar
    Login

    Hourly Weather San Miguel de Tucumán

    Today, 6 December, Friday

    Time Temperature Precipitation Wind Pressure Humidity
    00:00 +21°C° 0 mm 1 mps 718 mmHg 60%
    01:00 +21°C° 0 mm 1 mps 718 mmHg 61%
    02:00 +20°C° 0 mm 1 mps 718 mmHg 62%
    03:00 +20°C° 0 mm 1 mps 718 mmHg 63%
    04:00 +19°C° 0 mm 1 mps 718 mmHg 64%
    05:00 +19°C° 0 mm 1 mps 718 mmHg 65%
    06:00 +21°C° 0 mm 1 mps 719 mmHg 60%
    07:00 +24°C° 0 mm 1 mps 719 mmHg 54%
    08:00 +26°C° 0 mm 1 mps 720 mmHg 48%
    09:00 +28°C° 0 mm 1 mps 720 mmHg 45%
    10:00 +30°C° 0 mm 1 mps 720 mmHg 42%
    11:00 +32°C° 0 mm 2 mps 720 mmHg 39%
    12:00 +32°C° 0 mm 2 mps 719 mmHg 38%
    13:00 +34°C° 0 mm 2 mps 719 mmHg 37%
    14:00 +35°C° 0 mm 2 mps 718 mmHg 36%
    15:00 +34°C° 0 mm 2 mps 718 mmHg 38%
    16:00 +34°C° 0 mm 2 mps 717 mmHg 40%
    17:00 +32°C° 0 mm 2 mps 716 mmHg 42%
    18:00 +31°C° 0 mm 2 mps 717 mmHg 45%
    19:00 +29°C° 0 mm 2 mps 718 mmHg 49%
    20:00 +28°C° 0 mm 1 mps 718 mmHg 52%
    21:00 +27°C° 0 mm 1 mps 718 mmHg 53%
    22:00 +26°C° 0 mm 1 mps 718 mmHg 55%
    23:00 +26°C° 0 mm 1 mps 719 mmHg 56%

    Tomorrow, 7 December, Saturday

    Time Temperature Precipitation Wind Pressure Humidity
    00:00 +25°C° 0 mm 1 mps 718 mmHg 57%
    01:00 +24°C° 0 mm 1 mps 718 mmHg 58%
    02:00 +24°C° 0 mm 1 mps 718 mmHg 60%
    03:00 +23°C° 0 mm 1 mps 718 mmHg 60%
    04:00 +23°C° 0 mm 1 mps 718 mmHg 61%
    05:00 +23°C° 0 mm 1 mps 718 mmHg 61%
    06:00 +25°C° 0 mm 1 mps 718 mmHg 56%
    07:00 +26°C° 0 mm 1 mps 718 mmHg 51%
    08:00 +28°C° 0 mm 1 mps 719 mmHg 46%
    09:00 +30°C° 0 mm 1 mps 718 mmHg 42%
    10:00 +32°C° 0 mm 1 mps 718 mmHg 37%
    11:00 +35°C° 0 mm 2 mps 718 mmHg 33%
    12:00 +35°C° 0.1 mm 2 mps 717 mmHg 35%
    13:00 +34°C° 0.1 mm 2 mps 717 mmHg 38%
    14:00 +34°C° 0.1 mm 2 mps 716 mmHg 40%
    15:00 +31°C° 0.5 mm 2 mps 715 mmHg 48%
    16:00 +29°C° 0.5 mm 2 mps 714 mmHg 57%
    17:00 +27°C° 0.5 mm 2 mps 714 mmHg 65%
    18:00 +26°C° 0.5 mm 3 mps 714 mmHg 69%
    19:00 +26°C° 0.5 mm 3 mps 715 mmHg 73%
    20:00 +25°C° 0.5 mm 3 mps 715 mmHg 76%
    21:00 +24°C° 0.6 mm 3 mps 715 mmHg 78%
    22:00 +24°C° 0.6 mm 3 mps 715 mmHg 80%
    23:00 +22°C° 0.6 mm 3 mps 715 mmHg 82%

    Day after tomorrow, 8 December, Sunday

    Time Temperature Precipitation Wind Pressure Humidity
    00:00 +23°C° 0.9 mm 2 mps 715 mmHg 83%
    01:00 +21°C° 0.9 mm 2 mps 715 mmHg 85%
    02:00 +21°C° 0.9 mm 2 mps 715 mmHg 86%
    03:00 +21°C° 0.3 mm 1 mps 715 mmHg 86%
    04:00 +21°C° 0.3 mm 1 mps 716 mmHg 86%
    05:00 +19°C° 0.3 mm 0 mps 716 mmHg 86%
    06:00 +22°C° 0.4 mm 1 mps 716 mmHg 82%
    07:00 +24°C° 0.4 mm 1 mps 717 mmHg 78%
    08:00 +25°C° 0.4 mm 1 mps 718 mmHg 74%
    09:00 +27°C° 0.2 mm 1 mps 718 mmHg 65%
    10:00 +30°C° 0.2 mm 1 mps 718 mmHg 56%
    11:00 +32°C° 0.2 mm 1 mps 718 mmHg 47%
    12:00 +34°C° 0.3 mm 2 mps 718 mmHg 44%
    13:00 +35°C° 0.3 mm 2 mps 717 mmHg 41%
    14:00 +36°C° 0.3 mm 2 mps 717 mmHg 38%
    15:00 +35°C° 0.3 mm 2 mps 717 mmHg 38%
    16:00 +35°C° 0.3 mm 2 mps 716 mmHg 38%
    17:00 +33°C° 0.3 mm 1 mps 716 mmHg 39%
    18:00 +31°C° 0.1 mm 1 mps 716 mmHg 44%
    19:00 +29°C° 0.1 mm 1 mps 716 mmHg 49%
    20:00 +27°C° 0.1 mm 1 mps 717 mmHg 55%
    21:00 +26°C° 0 mm 1 mps 717 mmHg 57%
    22:00 +25°C° 0 mm 1 mps 717 mmHg 59%
    23:00 +24°C° 0 mm 2 mps 718 mmHg 61%

    9 December, Monday

    Time Temperature Precipitation Wind Pressure Humidity
    00:00 +24°C° 0 mm 1 mps 718 mmHg 62%
    01:00 +24°C° 0 mm 1 mps 717 mmHg 63%
    02:00 +23°C° 0 mm 1 mps 717 mmHg 65%
    03:00 +23°C° 0 mm 1 mps 717 mmHg 64%
    04:00 +23°C° 0 mm 1 mps 717 mmHg 64%
    05:00 +23°C° 0 mm 1 mps 717 mmHg 64%
    06:00 +25°C° 0 mm 1 mps 718 mmHg 59%
    07:00 +27°C° 0 mm 1 mps 718 mmHg 54%
    08:00 +29°C° 0 mm 1 mps 719 mmHg 48%
    09:00 +31°C° 0.1 mm 1 mps 719 mmHg 43%
    10:00 +34°C° 0.1 mm 2 mps 719 mmHg 38%
    11:00 +36°C° 0.1 mm 2 mps 719 mmHg 32%
    12:00 +37°C° 0.2 mm 2 mps 718 mmHg 31%
    13:00 +38°C° 0.2 mm 2 mps 718 mmHg 29%
    14:00 +39°C° 0.2 mm 2 mps 717 mmHg 28%
    15:00 +38°C° 0.2 mm 2 mps 716 mmHg 30%
    16:00 +37°C° 0.2 mm 2 mps 716 mmHg 32%
    17:00 +35°C° 0.2 mm 1 mps 715 mmHg 35%
    18:00 +33°C° 0.1 mm 1 mps 715 mmHg 40%
    19:00 +30°C° 0.1 mm 2 mps 716 mmHg 46%
    20:00 +28°C° 0.1 mm 2 mps 716 mmHg 51%
    21:00 +28°C° 0.1 mm 2 mps 716 mmHg 51%
    22:00 +28°C° 0.1 mm 2 mps 717 mmHg 51%
    23:00 +28°C° 0.1 mm 2 mps 717 mmHg 51%

    10 December, Tuesday

    Time Temperature Precipitation Wind Pressure Humidity
    00:00 +27°C° 0 mm 1 mps 717 mmHg 53%
    01:00 +26°C° 0 mm 1 mps 716 mmHg 54%
    02:00 +26°C° 0 mm 1 mps 716 mmHg 56%
    03:00 +25°C° 0 mm 1 mps 716 mmHg 57%
    04:00 +25°C° 0 mm 1 mps 716 mmHg 58%
    05:00 +25°C° 0 mm 1 mps 716 mmHg 58%
    06:00 +27°C° 0 mm 1 mps 717 mmHg 53%
    07:00 +29°C° 0 mm 1 mps 717 mmHg 48%
    08:00 +32°C° 0 mm 1 mps 718 mmHg 42%
    09:00 +34°C° 0 mm 1 mps 718 mmHg 38%
    10:00 +36°C° 0 mm 1 mps 718 mmHg 34%
    11:00 +39°C° 0 mm 1 mps 718 mmHg 30%
    12:00 +39°C° 0.1 mm 2 mps 718 mmHg 29%
    13:00 +40°C° 0.1 mm 2 mps 717 mmHg 29%
    14:00 +40°C° 0.1 mm 2 mps 716 mmHg 28%
    15:00 +37°C° 0.8 mm 3 mps 715 mmHg 38%
    16:00 +34°C° 0.8 mm 3 mps 714 mmHg 48%
    17:00 +29°C° 0.8 mm 3 mps 714 mmHg 58%
    18:00 +29°C° 0.1 mm 4 mps 714 mmHg 59%
    19:00 +28°C° 0.1 mm 4 mps 714 mmHg 60%
    20:00 +28°C° 0.1 mm 4 mps 715 mmHg 61%
    21:00 +28°C° 0 mm 4 mps 715 mmHg 60%
    22:00 +28°C° 0 mm 3 mps 716 mmHg 58%
    23:00 +27°C° 0 mm 3 mps 716 mmHg 56%

    11 December, Wednesday

    Time Temperature Precipitation Wind Pressure Humidity
    00:00 +27°C° 0 mm 2 mps 715 mmHg 58%
    01:00 +27°C° 0 mm 2 mps 715 mmHg 59%
    02:00 +26°C° 0 mm 1 mps 715 mmHg 61%
    03:00 +26°C° 0 mm 1 mps 714 mmHg 61%
    04:00 +26°C° 0 mm 1 mps 714 mmHg 61%
    05:00 +25°C° 0 mm 1 mps 714 mmHg 62%
    06:00 +28°C° 0 mm 1 mps 714 mmHg 56%
    07:00 +30°C° 0 mm 1 mps 715 mmHg 51%
    08:00 +32°C° 0 mm 1 mps 715 mmHg 46%
    09:00 +35°C° 0 mm 2 mps 715 mmHg 40%
    10:00 +38°C° 0 mm 2 mps 715 mmHg 34%
    11:00 +41°C° 0 mm 2 mps 715 mmHg 28%
    12:00 +42°C° 0 mm 3 mps 714 mmHg 26%
    13:00 +43°C° 0 mm 3 mps 713 mmHg 24%
    14:00 +44°C° 0 mm 3 mps 712 mmHg 22%
    15:00 +44°C° 0 mm 3 mps 711 mmHg 23%
    16:00 +44°C° 0 mm 3 mps 711 mmHg 24%
    17:00 +42°C° 0 mm 2 mps 710 mmHg 24%
    18:00 +39°C° 0 mm 2 mps 710 mmHg 31%
    19:00 +37°C° 0 mm 2 mps 711 mmHg 38%
    20:00 +34°C° 0 mm 2 mps 711 mmHg 44%
    21:00 +32°C° 0 mm 2 mps 711 mmHg 46%
    22:00 +32°C° 0 mm 2 mps 712 mmHg 48%
    23:00 +31°C° 0 mm 2 mps 713 mmHg 50%
    Show more